COSMOS 1275 DEB, 13073

Orbit data source: Space-Track

COSMOS 1275 DEB, 13073 is space debris in LEO originally from a launch on Thu, 04 Jun 1981 UTC launched from the Plesetsk Missile And Space Complex (PKMTR). Debris objects in space refer to the collection of defunct objects orbiting the Earth. Examples of debris include non-operational satellites, rocket bodies, and fragments generated from explosions, collisions, or faulty payload assembly.

Loading next visibility...
Identifier
13073, 1981-053EZ
Orbit
LEO
Country
Flag of CISCIS
Related business
Manufacturer
Unknown
Mission
Spacecraft
Bus & Motor
Unknown
Mass
Unknown
Launch date (UTC)
1981-06-04 (45 years ago)
Launch vehicle
Unknown
Launch site
Plesetsk Missile And Space Complex (PKMTR)
Object type
Payload
Rocket body
Debris
Shape & HBR
Unknown shape, 0.1 m
Radar Cross Section
Small (<0.1 m²)

Expand to show TLE details & history
Last TLE update: 6 hours ago

TLE from 6 hours ago
0 COSMOS 1275 DEB
1 13073U 81053EZ  26036.30066065  .00000158  00000-0  15090-3 0  9996
2 13073  82.9365  36.5915 0088821 110.2878 311.8688 13.72404096227240
Epoch: 2026-02-05T07:12Z
TLE epoch observation values (Epoch: 2026-02-05T07:12:57.080Z)
Latitude
60.69855°
Longitude
165.58667°
Altitude
957.936 km
Speed
7.4 km/s
True Right ascension
03h 17m 07s
True Declination
60° 33' 20"
Sunlit
Object was in daylight at epoch
Visualization orbit readout
Latitude
Unknown
Longitude
Unknown
Altitude
Unknown
Speed
Unknown
Apparent Right ascension
Unknown
Apparent Declination
Unknown
Sunlit
N/A
Visualization observer readout
Local Sidereal Time
14:52:05
Azimuth
Unknown
Elevation
Unknown
Doppler factor
Unknown
Orbital elements
Apogee altitude
1,053.533 km
Perigee altitude
922.677 km
Semi-major axis
7,366.242 km
Eccentricity
0.00888
Inclination
82.9365°
RAAN
36.5915°
Arg. of periapsis
110.2878°
True anomaly
311.10523°
Mean anomaly
311.8688°
Eccentric anomaly
311.48758°
Mean motion
3.433 °/min
Orbital period
104.86 mins
BSTAR
0.0001509
Loading maneuver chart data...
Computing Atmospheric mass density...

Documentation

Showing up to 5 results
|